Temp
14 13 13 13 13 13 13 12 12 12 11 11 11 11 12 12 11 11 10 10 10 10 9 9 9 9 9 9 9 9 9 9 9 9 9 9 9 9 9 8 8 9 10 10 10 10 10 10 10 10 10 9
14 13 13 13 13 13 12 12 12 11 11 11 11 11 11 11 11 10 10 10 10 9 9 9 9 9 9 9 9 9 9 9 9 9 9 8 8 8 8 8 8 9 9 10 10 10 10 10 10 10 9 9
13 13 13 12 12 12 12 12 11 11 11 11 11 11 11 11 10 10 9 9 9 9 9 9 8 9 9 9 9 9 9 8 8 8 8 8 8 8 8 8 8 9 9 10 10 9 10 9 9 9 9 9
13 12 12 12 12 12 11 11 11 11 11 10 10 10 10 10 10 9 9 9 8 8 8 8 8 8 9 9 9 8 8 8 8 8 8 8 7 7 7 7 7 8 9 9 9 9 9 9 9 9 8 8
12 12 12 12 12 12 11 11 11 11 10 10 10 10 10 10 9 9 9 8 8 8 8 8 8 8 8 8 8 8 8 8 8 8 7 7 7 6 6 7 7 8 8 9 9 9 9 9 9 9 8 8
12 12 12 12 12 11 11 11 11 10 10 10 10 10 10 10 9 9 8 8 8 8 8 8 8 8 8 8 8 8 8 8 7 7 6 6 6 6 6 7 7 8 8 9 9 9 9 9 9 8 8 8
11 12 12 11 11 11 11 11 10 10 10 10 10 10 10 9 9 9 8 8 7 7 8 8 8 7 7 8 8 7 7 7 7 6 6 5 6 6 6 7 7 7 8 8 9 9 9 8 8 8 8 7
11 11 11 11 11 11 10 10 10 10 9 9 10 10 10 10 9 8 8 8 7 7 7 7 7 7 7 7 7 7 6 6 6 5 5 5 6 6 6 6 6 7 8 8 8 8 8 8 8 8 8 7
11 11 11 11 11 10 10 10 10 10 9 9 10 10 10 10 9 8 8 7 7 7 7 7 7 6 6 6 6 6 6 5 5 5 5 5 6 6 6 6 6 7 7 7 7 8 8 8 8 8 7 7
11 11 11 10 10 10 10 10 10 10 9 9 10 10 10 9 8 8 8 7 7 7 7 6 6 6 6 6 6 6 6 5 5 5 5 5 5 5 5 6 6 6 7 7 7 7 7 7 7 7 7 7
11 11 11 10 10 10 10 10 10 9 9 9 10 10 9 9 8 8 7 7 7 7 7 6 6 6 6 6 5 5 5 5 5 5 5 5 5 5 5 5 6 6 6 7 6 6 6 7 7 7 6 7
11 11 11 10 10 10 10 10 9 9 9 9 9 9 9 8 8 8 7 8 7 7 7 6 6 6 6 6 5 5 5 5 5 5 4 4 4 4 5 5 5 6 6 6 6 6 6 6 6 6 6 6
11 11 11 10 10 10 10 9 9 9 9 9 9 9 8 8 8 8 8 8 7 7 7 7 6 6 6 6 5 5 5 4 4 4 4 4 4 4 4 5 4 5 5 5 5 5 5 5 5 6 6 5
12 11 11 10 10 10 10 9 9 9 9 9 8 8 8 8 8 8 7 7 7 7 7 7 6 6 6 6 5 5 4 4 3 3 3 3 3 3 4 4 4 4 4 4 4 4 4 4 5 5 5 5
12 11 10 10 10 10 9 9 9 9 8 8 8 8 8 8 8 8 7 7 7 7 7 7 7 6 6 6 5 5 4 3 3 3 3 3 3 3 3 4 4 4 4 4 4 4 4 4 4 4 4 4
11 10 10 10 10 10 9 9 9 9 8 8 8 8 8 8 8 7 7 7 7 7 7 6 6 6 6 5 5 4 4 3 3 3 3 3 3 3 3 4 4 4 4 4 4 4 4 4 4 4 4 4
11 10 10 10 10 10 10 9 9 9 8 8 8 8 8 8 7 7 7 7 7 6 6 6 6 6 5 5 5 4 4 3 3 3 3 3 3 3 3 3 4 4 4 4 4 4 4 4 3 3 3 3
10 10 10 11 10 11 11 10 9 9 8 8 8 8 8 8 7 7 7 7 6 6 6 6 6 5 5 5 4 4 4 3 3 3 3 3 3 3 3 3 3 3 3 3 3 3 3 3 3 3 3 3
10 10 10 11 11 11 11 10 10 9 8 8 8 8 8 8 8 7 7 6 6 6 6 6 5 5 5 5 4 4 4 3 3 3 3 3 3 3 3 3 3 3 3 3 3 3 3 3 3 3 3 3
10 10 10 11 11 11 11 11 10 10 10 9 8 8 7 7 7 7 7 6 6 6 6 5 5 5 5 4 4 4 3 3 3 3 3 3 3 3 3 3 3 3 3 3 3 3 3 3 3 3 3 3
10 10 10 10 11 11 11 11 10 10 10 10 9 8 8 7 7 7 7 7 6 6 5 5 5 5 4 4 4 4 3 3 3 3 3 3 3 3 3 3 3 3 3 3 2 2 2 2 2 2 2 3
9 10 10 10 9 10 10 10 10 10 10 10 9 9 8 7 7 6 7 7 6 6 5 5 5 4 4 4 4 3 3 3 3 3 3 3 3 3 3 3 3 3 3 2 2 2 2 2 2 2 2 2
9 9 9 9 9 8 8 8 8 9 9 8 8 9 8 7 7 6 6 6 6 6 5 5 5 4 4 4 3 3 3 3 3 3 3 3 3 3 3 3 3 3 3 2 2 2 2 2 2 2 2 2
8 8 8 8 8 8 7 7 7 7 7 7 8 8 8 7 6 6 5 5 5 5 5 5 4 4 4 4 3 3 3 3 3 3 3 3 3 3 3 3 3 3 3 2 2 2 2 2 2 2 2 2
8 8 8 7 7 7 7 6 6 6 6 6 7 7 7 7 7 6 5 5 5 5 5 5 4 4 4 3 3 3 3 3 3 3 3 3 3 3 3 3 3 3 3 2 2 1 1 1 2 2 1 1
8 8 8 7 7 7 6 6 6 5 5 5 6 6 7 7 7 6 6 5 4 5 5 5 5 4 4 3 3 3 3 3 3 3 3 3 3 3 3 3 3 3 3 2 1 1 1 1 1 1 1 1
6 6 6 6 6 6 6 5 5 5 5 5 5 5 5 6 6 6 6 5 4 4 4 4 4 4 4 3 3 3 3 3 2 3 3 2 3 2 2 3 3 3 3 2 2 2 1 1 1 1 1 1
5 4 5 5 5 5 5 4 3 4 4 4 4 4 4 5 5 5 5 5 4 4 3 3 4 4 4 4 3 3 3 2 2 2 2 2 2 2 2 2 2 3 3 3 3 2 2 2 2 2 1 0
4 4 4 4 4 3 3 3 2 3 3 3 3 4 4 4 4 4 4 5 4 4 3 3 3 3 3 3 3 3 3 3 2 2 2 2 2 2 2 2 2 2 2 3 3 3 4 3 3 4 3 1
4 3 3 3 2 2 2 1 1 2 2 2 3 3 3 3 3 3 4 3 3 3 3 3 3 3 3 3 3 3 3 3 2 2 2 2 2 2 3 3 2 2 2 3 4 4 4 4 4 4 4 3
4 4 3 3 2 2 1 1 1 1 1 2 2 2 2 2 2 3 3 2 2 2 3 3 2 2 2 3 3 3 3 3 3 2 2 2 2 2 2 3 3 2 2 2 3 4 4 4 4 4 3 3
Height
784 786 788 790 792 794 797 799 800 802 805 806 807 809 812 813 814 816 818 819 820 820 821 822 823 824 824 824 825 827 829 832 833 833 833 833 834 835 837 838 839 840 841 841 841 841 841 842 843 844 845 847
784 787 788 791 792 795 797 799 801 803 805 806 808 811 813 813 814 817 818 819 820 821 822 823 824 825 825 825 826 828 829 831 833 834 833 834 834 836 837 839 840 841 842 842 842 842 843 843 844 845 846 848
784 787 789 791 793 795 797 799 801 804 805 806 810 813 814 814 814 817 819 820 821 822 823 823 825 825 825 825 826 828 829 831 833 835 835 835 836 837 838 840 841 842 843 844 844 844 845 845 846 847 848 849
785 787 789 791 793 795 798 799 802 804 805 807 811 813 814 814 815 817 819 820 821 822 823 824 825 826 826 826 826 828 830 831 833 835 836 837 837 838 839 840 841 841 843 845 846 846 847 847 848 848 849 850
785 786 788 791 793 795 798 801 803 804 805 808 812 814 814 815 816 818 819 821 822 823 824 825 826 827 827 826 826 828 830 832 834 835 837 838 838 838 838 840 841 842 844 846 847 848 848 849 849 850 850 851
785 787 788 791 793 796 799 802 803 804 806 810 812 814 815 816 817 818 820 821 822 823 824 825 826 827 827 827 827 828 830 832 834 835 837 838 838 839 840 842 843 844 845 847 848 848 849 850 850 851 851 852
786 787 789 792 794 796 800 802 803 804 807 810 812 814 816 817 818 818 820 821 823 824 825 826 827 827 828 828 828 829 830 832 834 835 837 839 840 841 842 843 844 845 846 848 848 849 850 850 850 851 852 852
787 787 789 792 794 796 799 802 803 805 807 810 813 814 816 817 817 818 820 822 823 824 825 826 826 827 827 827 827 828 829 831 833 834 836 839 841 842 843 844 845 846 848 849 849 850 851 851 851 852 853 853
785 787 789 791 794 796 798 801 803 805 807 810 812 814 816 816 817 818 820 822 823 825 826 826 827 827 827 827 827 828 828 830 832 834 836 838 841 843 844 845 846 847 848 850 850 851 852 853 853 853 854 855
782 785 787 791 793 795 798 801 803 805 807 809 812 813 814 815 817 819 820 822 823 825 826 827 827 827 828 828 829 829 829 830 832 834 836 839 841 842 843 844 845 847 849 850 851 852 852 853 854 855 855 856
781 784 786 790 792 794 797 800 802 804 806 809 811 812 813 815 817 819 821 822 823 825 826 827 828 828 828 829 830 830 830 831 832 834 837 839 841 842 843 843 844 846 848 849 850 852 853 853 854 855 856 857
781 784 786 789 791 793 796 799 801 803 805 808 810 811 813 815 817 819 821 822 823 825 826 828 828 829 829 830 831 831 831 831 832 834 836 839 841 842 843 844 845 845 847 849 850 852 853 853 854 855 856 857
781 783 786 788 790 792 795 798 800 802 804 807 809 811 813 815 817 819 820 822 823 824 826 828 828 829 830 830 831 831 832 831 832 834 836 838 840 842 844 845 846 847 848 849 851 852 853 854 854 856 857 858
780 782 785 788 789 792 795 798 799 801 803 805 808 810 812 814 816 818 819 821 823 824 826 827 828 829 830 831 831 831 831 832 832 833 834 836 838 840 843 845 846 848 848 849 851 852 853 854 855 856 857 858
779 780 784 787 789 791 794 797 798 800 802 805 807 809 811 813 815 817 819 820 822 824 825 827 828 829 829 830 830 831 831 832 833 833 834 836 838 840 842 845 846 848 848 849 850 851 852 854 855 856 857 857
777 779 783 786 788 791 794 795 797 799 802 804 806 808 810 812 814 816 817 820 821 823 825 826 828 828 829 830 830 831 831 832 833 833 834 836 837 840 842 844 846 847 848 849 849 850 852 853 854 855 856 857
777 779 780 783 787 790 792 794 796 798 801 803 804 806 808 811 813 815 816 818 820 822 824 826 827 828 829 830 830 830 831 832 833 833 834 835 837 839 841 842 844 846 847 848 849 850 851 852 854 854 855 856
777 778 778 780 785 788 790 793 795 797 799 801 803 805 807 809 811 813 815 817 818 820 823 825 826 827 828 829 829 829 830 831 832 833 833 834 836 838 840 841 843 845 846 847 848 850 851 852 853 854 855 856
776 778 777 778 782 785 788 791 793 795 798 800 801 804 806 808 810 812 814 815 817 819 821 823 825 826 827 827 828 829 830 831 831 832 833 834 835 837 839 840 842 844 845 846 848 849 850 851 852 853 854 855
774 776 777 778 780 783 785 788 791 793 795 798 800 802 804 806 808 810 812 814 815 817 819 821 823 824 825 825 826 828 829 830 831 832 833 834 834 836 838 840 841 843 844 846 847 848 850 850 851 852 853 854
773 774 776 778 780 782 784 787 789 791 794 796 799 801 803 804 807 808 810 812 814 816 817 819 821 822 823 824 825 827 828 829 830 831 832 834 835 835 837 839 840 842 844 845 847 848 849 850 850 851 852 853
773 773 775 777 780 781 783 785 788 790 792 794 797 799 801 803 805 807 808 810 812 814 815 817 819 820 821 822 824 825 826 827 829 830 831 833 834 836 836 838 839 841 842 844 846 847 849 849 850 851 851 852
772 773 774 776 779 781 783 785 787 789 791 793 795 797 799 801 803 805 807 809 811 812 814 815 816 817 819 821 822 823 825 826 827 828 830 831 833 835 836 837 839 840 841 843 845 846 848 849 850 850 851 852
770 772 774 776 778 780 782 784 786 788 790 792 794 796 798 800 802 804 806 808 810 811 812 813 814 815 817 819 820 821 823 824 825 826 828 830 832 834 836 837 839 840 841 842 845 846 847 848 849 850 850 850
768 770 772 774 776 778 780 782 785 787 789 790 792 794 796 798 800 802 804 806 808 809 811 812 812 813 815 817 818 819 821 822 823 825 827 828 830 832 833 836 837 839 840 842 844 846 847 848 848 849 849 849
767 768 770 771 773 776 778 781 783 785 787 789 790 793 794 796 799 801 803 805 806 808 809 809 810 811 813 815 816 818 820 821 822 823 825 826 828 830 832 833 835 836 837 839 841 844 846 848 848 848 848 848
769 769 770 771 773 775 777 779 781 783 786 789 790 791 792 794 796 799 801 803 805 806 807 808 808 809 811 813 814 816 818 819 820 821 823 824 825 827 830 832 833 834 834 836 839 843 845 846 847 847 846 845
772 772 772 773 774 776 777 779 781 783 785 787 789 790 791 793 794 797 799 801 803 804 806 807 807 808 809 811 812 814 816 817 818 819 820 822 823 824 827 829 830 831 832 834 836 839 841 843 845 843 840 841
773 774 774 774 775 777 778 780 781 782 784 785 786 788 789 791 793 795 797 799 801 803 804 806 807 807 808 809 811 812 814 815 816 817 819 820 821 822 823 825 827 829 830 831 832 833 836 838 839 836 835 838
773 774 775 776 777 778 779 780 781 781 782 783 784 786 787 789 792 793 795 797 799 801 802 804 806 807 807 808 809 810 812 813 814 816 817 818 819 820 821 823 825 826 827 830 831 831 831 832 832 832 832 835
772 773 775 776 778 779 780 781 781 782 783 784 784 786 787 789 790 792 793 794 797 799 801 802 804 805 806 807 808 809 810 811 812 813 815 816 818 819 821 822 823 823 825 828 828 829 829 829 829 830 831 832
Wind_Speed
25 25 26 27 26 26 25 24 23 22 20 19 18 17 16 16 16 15 15 15 15 16 16 16 15 15 15 16 17 17 16 15 14 15 16 16 17 16 16 16 16 21 22 19 20 20 20 21 20 21 21 20
25 26 27 29 28 26 25 24 23 21 21 20 18 17 16 17 17 16 16 16 16 16 16 16 15 15 16 17 17 17 16 16 16 16 17 17 18 17 17 16 17 22 21 19 19 19 20 18 18 20 20 21
26 28 30 30 28 27 26 25 24 22 22 21 19 18 16 18 20 18 17 16 16 16 16 16 15 16 18 18 18 18 17 18 17 17 17 17 17 16 16 16 17 21 21 19 18 20 21 18 18 18 18 19
29 32 31 30 29 27 25 24 23 22 23 22 19 17 16 19 22 19 18 16 15 16 17 16 16 17 18 19 19 19 18 18 17 16 16 15 16 16 17 17 19 22 21 19 19 21 20 18 18 19 18 17
32 33 32 31 28 26 24 23 23 22 23 22 20 18 16 18 20 19 19 17 15 17 18 17 17 17 18 19 19 19 18 17 16 16 15 15 16 16 17 18 21 22 21 20 20 21 18 16 17 18 18 16
33 33 32 30 26 25 24 23 22 22 22 21 21 20 16 16 16 18 18 17 16 17 19 19 17 16 17 19 19 18 18 17 16 16 16 14 14 15 15 19 22 21 21 20 20 19 16 16 17 16 17 17
33 33 31 28 27 25 24 22 22 22 22 22 21 20 18 16 16 18 19 17 17 18 20 20 17 17 18 19 19 19 18 17 17 16 15 14 13 13 15 20 21 21 21 19 19 17 14 17 18 16 17 17
32 31 30 28 27 26 25 23 23 24 23 22 21 19 16 16 18 20 19 18 18 19 21 20 18 19 20 22 22 23 22 20 19 17 16 15 13 14 16 18 19 20 19 15 15 14 14 17 18 16 16 15
32 30 29 28 27 27 25 24 24 23 21 21 20 16 16 18 18 19 19 19 19 19 21 20 19 20 20 22 23 23 23 21 19 17 16 16 15 16 16 16 17 17 15 11 10 12 12 14 13 12 12 12
34 30 29 27 27 26 24 24 25 23 20 21 18 14 17 19 16 17 19 19 18 18 20 20 19 19 19 20 21 21 22 20 18 17 16 15 15 16 15 15 15 13 11 9 8 10 11 13 13 12 12 11
33 30 29 28 28 26 25 25 25 24 22 22 18 15 17 16 15 18 19 19 18 18 18 18 18 18 17 18 19 18 19 18 16 16 15 14 13 15 14 15 15 13 12 10 10 11 10 12 14 14 12 10
32 28 28 28 28 26 26 26 26 24 23 23 19 16 16 16 17 19 19 18 18 19 18 17 17 17 17 16 16 14 15 16 15 16 16 16 15 14 15 15 14 13 13 11 12 13 11 12 13 13 12 8
29 27 28 28 28 27 26 26 26 25 24 23 20 18 18 18 18 18 18 17 18 18 18 18 17 16 16 15 15 14 16 16 15 17 19 19 17 15 18 17 13 13 12 11 13 14 13 13 14 14 13 10
28 28 29 28 27 27 26 25 25 25 25 24 22 21 20 18 17 18 18 18 17 17 18 18 17 17 17 17 17 16 18 18 17 18 19 20 18 15 19 18 13 13 12 12 14 14 14 14 15 16 15 13
29 30 30 28 27 28 26 25 26 26 26 24 22 22 21 19 17 17 18 18 17 17 18 18 17 18 18 18 17 16 16 17 17 18 18 18 17 16 18 17 14 13 13 13 14 14 14 13 14 16 16 14
29 30 31 29 29 28 26 26 26 25 24 24 23 23 23 21 18 18 18 19 18 18 19 18 16 17 17 17 16 16 16 17 17 18 17 17 17 18 17 16 15 12 12 14 14 15 14 13 13 14 15 15
28 31 33 31 30 29 26 26 25 25 24 24 24 24 24 22 20 19 20 20 19 19 20 18 17 17 16 17 16 17 18 18 18 19 20 19 19 20 16 16 17 13 11 13 13 14 14 13 13 13 14 15
26 30 33 32 31 29 27 26 26 25 25 24 24 24 24 23 22 21 21 22 20 19 20 19 18 18 17 17 18 18 18 19 19 19 21 22 21 20 17 16 17 14 12 12 13 14 14 14 14 13 14 14
26 28 31 33 32 29 27 26 27 27 26 25 24 24 25 24 23 23 22 23 22 21 21 20 19 19 18 19 19 19 18 18 18 18 20 22 22 20 17 16 16 15 13 12 13 14 14 15 15 14 15 15
28 28 29 31 32 31 29 27 27 27 26 25 25 25 26 25 24 23 22 23 24 22 21 22 21 20 19 20 20 19 17 17 17 17 18 20 22 22 18 16 16 14 13 12 12 14 14 15 15 15 16 16
27 30 29 29 31 31 30 28 28 26 25 25 24 25 26 26 25 24 23 23 24 24 23 23 22 22 22 22 21 19 18 17 17 17 18 19 19 20 19 17 17 16 13 13 12 12 13 14 14 15 16 16
26 29 28 28 28 29 29 29 28 26 26 25 24 25 26 26 26 25 24 23 24 25 24 22 22 23 23 22 21 20 20 19 18 18 19 20 18 18 19 18 18 17 15 14 13 13 13 13 13 13 14 15
25 26 27 27 26 27 27 28 27 27 27 26 26 26 26 27 27 26 24 24 25 25 24 23 23 24 23 23 22 22 22 21 20 20 20 22 20 18 17 17 19 17 16 15 14 13 13 13 13 12 12 14
24 24 24 25 26 27 27 27 27 27 27 27 26 26 27 27 27 27 25 24 25 25 25 24 24 24 23 24 23 23 23 23 22 22 22 23 23 21 17 16 18 17 16 16 13 12 12 12 13 13 13 14
27 27 26 25 26 28 28 28 27 26 27 27 27 27 27 27 27 27 26 25 26 25 25 25 25 25 24 24 24 24 24 24 23 23 23 24 24 24 21 17 18 19 17 16 13 9 10 11 12 13 14 15
29 29 29 27 28 29 28 28 28 28 26 26 27 27 27 28 27 28 27 26 26 26 26 27 26 26 25 25 25 24 23 23 23 23 25 25 25 25 24 21 20 22 19 16 15 11 7 8 11 14 16 17
25 25 25 23 24 27 27 27 28 27 26 26 26 27 28 28 28 28 28 28 27 26 26 26 27 26 26 26 26 25 24 24 24 25 26 27 27 26 24 22 22 25 23 18 18 13 6 4 5 9 16 20
19 19 20 19 19 22 23 22 23 24 24 25 26 27 27 28 29 28 28 29 28 27 26 25 25 25 25 26 26 26 26 26 26 27 28 29 29 28 27 23 23 27 26 22 20 11 3 5 4 3 10 17
16 16 16 16 15 17 17 17 19 22 23 25 26 27 28 28 29 29 29 29 28 28 27 25 24 24 24 25 26 27 26 27 27 27 29 30 30 30 30 27 23 26 28 27 24 16 6 5 4 3 7 11
16 15 15 15 14 13 14 15 17 21 23 25 27 28 28 28 28 29 29 28 28 29 28 26 24 23 23 24 26 27 27 27 28 28 29 31 31 30 30 28 24 25 30 29 27 23 13 7 5 2 7 7
18 17 17 16 15 12 11 12 14 16 18 21 24 25 25 26 27 28 29 28 28 29 29 28 26 24 23 24 25 27 27 27 28 29 29 30 32 30 28 28 26 25 28 29 29 30 23 16 11 6 4 5
Wind_Direction
165 161 155 151 146 140 139 137 134 133 134 131 124 129 138 137 137 137 132 133 132 127 126 123 122 125 128 128 125 126 127 131 133 130 128 125 124 122 123 119 120 134 141 135 120 113 113 111 111 112 112 109
163 159 152 146 143 140 140 137 134 136 135 130 129 136 140 135 136 138 134 136 133 126 127 123 122 130 133 129 126 129 131 131 128 124 122 119 121 120 120 117 123 137 141 138 123 115 118 116 116 116 113 113
158 152 147 142 141 141 141 140 139 140 135 130 134 140 140 137 136 136 134 134 132 128 128 124 126 133 134 132 130 132 129 125 120 118 117 116 117 117 117 117 127 135 139 143 127 119 122 115 115 115 111 115
151 147 145 142 143 143 142 142 143 141 135 134 138 143 142 138 135 135 133 131 130 129 129 128 131 136 134 132 131 128 125 122 119 117 115 116 117 117 119 125 137 135 135 144 127 119 120 112 113 113 111 113
147 145 145 145 146 145 145 145 146 142 137 139 143 146 142 138 138 136 134 133 136 134 132 134 134 136 135 132 128 124 122 120 119 120 119 119 122 125 129 136 144 135 133 142 127 117 118 117 117 113 113 110
145 144 145 146 148 146 148 150 148 143 142 146 147 147 139 139 144 142 141 139 143 141 135 136 137 136 135 130 127 125 123 121 122 126 124 122 130 136 140 143 142 133 134 142 131 119 116 124 126 120 116 110
144 146 147 147 148 147 149 150 149 145 146 152 151 147 142 140 144 146 147 145 146 144 138 138 139 135 133 132 130 128 125 122 124 127 123 120 126 138 147 144 137 133 137 144 140 126 110 122 131 128 125 117
148 148 148 148 149 148 150 149 148 146 148 154 150 145 147 147 149 149 148 150 149 145 141 141 143 141 138 141 139 134 129 124 125 122 117 120 127 136 141 138 134 135 138 140 147 138 111 119 131 131 132 127
153 151 149 149 149 150 153 153 150 148 151 154 150 147 154 155 153 152 152 155 152 147 147 146 148 148 145 144 142 142 139 133 135 130 121 126 139 139 134 135 135 137 137 128 143 152 125 119 130 135 147 144
155 154 152 152 152 152 154 154 152 152 155 155 155 156 158 155 151 152 155 156 153 152 154 152 153 155 154 149 145 149 148 143 143 141 133 131 143 145 140 146 146 141 146 136 132 156 146 130 129 136 157 163
157 157 157 157 156 155 155 155 154 155 158 158 162 167 159 156 154 153 154 157 158 159 160 158 160 164 168 162 154 156 156 155 155 151 145 142 152 159 155 155 152 144 152 156 142 146 153 148 137 125 137 162
157 157 158 159 158 158 159 158 158 157 159 161 168 172 164 160 160 158 157 162 163 163 165 166 168 171 176 175 163 161 161 160 163 162 156 153 158 171 172 161 152 149 151 157 151 142 143 151 149 131 124 149
157 158 160 160 159 159 161 161 161 159 159 165 171 168 164 162 161 163 162 163 165 166 169 169 171 171 173 175 169 170 170 163 160 159 160 162 163 168 175 167 153 151 147 149 156 148 142 146 152 149 137 141
159 163 162 160 161 161 161 161 163 162 162 168 171 165 163 164 163 166 167 165 165 169 170 170 172 170 168 170 171 173 175 172 163 159 163 169 171 165 169 169 157 154 150 153 162 156 147 149 153 156 152 148
164 163 161 161 162 161 159 162 165 166 166 168 168 167 166 165 166 170 170 168 169 173 171 169 170 169 170 169 171 172 171 173 168 167 166 164 168 162 163 169 164 164 165 160 164 162 152 153 157 159 162 158
165 162 161 163 161 158 161 166 167 167 169 170 171 174 171 166 169 172 172 171 175 178 173 170 170 170 173 170 172 175 171 169 166 167 163 158 162 159 161 171 168 168 177 173 170 170 164 162 166 166 170 170
164 164 164 164 162 162 167 169 167 167 170 174 178 181 177 171 171 173 175 174 177 181 175 173 175 173 173 173 176 180 176 170 166 166 162 159 160 160 163 171 169 164 173 183 183 180 178 176 179 179 182 183
165 166 166 167 168 170 173 170 167 169 172 176 181 182 180 178 176 177 178 177 178 179 177 177 178 176 175 178 181 183 182 177 174 173 168 162 160 164 166 168 172 169 167 183 190 188 191 191 192 195 196 198
171 169 168 172 176 176 178 176 172 174 175 178 182 180 180 183 183 182 182 182 181 177 177 181 180 179 180 184 187 187 185 183 182 180 176 170 166 166 167 171 175 174 175 183 190 194 198 202 204 205 207 210
176 174 174 176 178 179 182 183 180 181 182 184 184 179 180 184 186 186 186 187 184 178 180 184 182 182 186 189 193 191 185 185 187 187 182 176 174 171 168 175 175 175 184 184 188 197 198 205 210 209 212 215
178 178 180 180 179 179 182 185 186 187 189 189 189 186 184 186 187 188 192 192 187 183 184 187 184 186 192 194 195 193 187 186 190 192 185 176 180 179 173 176 175 173 183 184 186 192 193 203 207 208 213 214
180 180 182 182 181 180 181 184 188 190 192 193 194 194 192 190 188 189 193 193 188 188 189 187 187 192 197 197 197 194 189 187 190 195 189 178 179 183 180 178 175 174 180 181 185 187 190 204 203 203 216 216
183 181 182 182 183 182 183 185 189 192 194 194 195 196 196 193 190 191 193 191 188 190 190 187 191 197 199 198 197 196 191 188 190 193 191 185 179 179 185 187 179 176 180 180 184 188 193 208 205 203 219 222
188 183 182 183 184 184 186 189 190 193 195 196 197 199 199 197 195 194 193 190 189 192 190 188 194 199 200 199 198 198 194 191 194 194 191 190 184 177 179 188 185 180 182 179 180 190 199 212 212 209 220 226
193 191 187 185 187 188 190 191 193 194 194 195 198 203 205 202 201 200 197 193 191 194 194 193 198 201 200 199 200 202 199 195 197 197 193 191 190 184 178 180 185 185 183 176 172 182 199 213 217 214 221 227
200 198 194 191 192 193 193 196 199 198 197 197 198 203 207 206 206 206 204 198 194 196 198 197 202 205 203 201 200 202 201 199 199 198 195 191 189 189 186 182 183 185 184 176 174 172 177 212 225 226 227 229
203 200 199 197 197 196 196 199 203 203 203 204 203 204 206 206 207 209 210 205 198 198 200 200 204 207 206 204 201 201 199 198 200 199 196 193 191 188 188 189 187 189 191 182 173 168 168 194 209 233 232 228
209 205 202 202 202 201 200 201 203 204 207 209 209 209 209 208 208 210 212 211 205 202 202 202 206 209 208 206 203 203 201 198 200 200 197 196 195 190 187 191 193 195 197 188 175 167 170 178 171 236 222 216
219 214 207 202 200 199 201 204 204 206 211 213 213 214 213 211 210 210 213 214 212 209 206 204 208 211 210 207 205 205 205 203 203 204 202 198 197 196 193 191 193 198 200 196 189 183 169 163 185 239 189 193
226 221 214 206 197 193 197 201 204 210 215 216 215 217 217 215 213 213 214 216 215 214 212 208 208 212 214 210 207 207 207 207 207 207 206 203 199 201 201 196 192 198 202 203 202 199 203 207 208 209 166 162
230 226 221 215 208 206 210 211 218 224 227 226 223 222 222 221 219 218 217 218 217 216 215 212 210 212 216 216 213 210 208 209 211 211 211 209 205 203 204 202 199 199 199 203 209 210 221 235 234 232 180 160